Location: Freistadt
(48.5112°N, 14.5013°E)
Time: 14:34:54
(UTC+02:00)

RS-15 - Visible Passes

Search period start: 28 March 2023 00:00
Search period end: 07 April 2023 00:00
Orbit: 1884 x 2161 km, 64.8° (Epoch: 27 March)

Date Brightness Start Highest point End Pass type
(mag) Time Alt. Az. Time Alt. Az. Time Alt. Az.
28 Mar 8.0 01:04:24 10° NW 01:16:34 77° NE 01:18:54 63° ESE visible
28 Mar 8.5 03:17:40 10° NW 03:26:37 37° W 03:26:37 37° W visible
28 Mar 9.2 19:57:11 10° W 20:08:49 44° NNW 20:20:13 10° NE visible
28 Mar 9.1 22:13:56 10° NW 22:25:07 38° N 22:35:52 10° ENE visible
29 Mar 8.2 00:28:13 10° NW 00:40:19 66° NE 00:43:43 50° E visible
29 Mar 8.2 02:41:18 10° NW 02:51:26 47° W 02:51:26 47° W visible
29 Mar 9.2 21:37:10 10° WNW 21:48:17 37° N 21:59:00 10° ENE visible
29 Mar 8.4 23:51:58 10° NW 00:03:55 57° NE 00:08:35 39° E visible
30 Mar 8.0 02:05:03 10° NW 02:16:19 60° WSW 02:16:19 60° WSW visible
30 Mar 9.4 04:20:47 10° WNW 04:24:02 14° W 04:24:02 14° W visible
30 Mar 9.2 21:00:17 10° WNW 21:11:25 37° N 21:22:11 10° ENE visible
30 Mar 8.6 23:15:39 10° NW 23:27:25 50° NNE 23:33:30 29° E visible
31 Mar 7.8 01:28:51 10° NW 01:40:48 74° WSW 01:41:14 73° SW visible
31 Mar 9.1 03:43:14 10° NW 03:48:57 20° W 03:48:57 20° W visible
31 Mar 9.3 20:23:21 10° WNW 20:34:33 38° N 20:45:27 10° ENE visible
31 Mar 8.8 22:39:15 10° NW 22:50:49 45° NNE 22:58:27 21° E visible
01 Apr 7.8 00:52:42 10° NW 01:04:48 88° SW 01:06:11 75° SSE visible
01 Apr 8.9 03:06:22 10° NW 03:13:54 27° W 03:13:54 27° W visible
01 Apr 9.3 19:46:22 10° W 19:57:44 40° NNW 20:08:51 10° NE visible
01 Apr 8.9 22:02:45 10° NW 22:14:06 41° NNE 22:23:27 15° E visible
02 Apr 8.0 00:16:31 10° NW 00:28:41 79° NE 00:31:10 62° ESE visible
02 Apr 8.6 02:29:49 10° NW 02:38:54 36° W 02:38:54 36° W visible
02 Apr 9.1 21:26:07 10° NW 21:37:19 38° NNE 21:48:05 10° ENE visible
02 Apr 8.2 23:40:20 10° NW 23:52:27 68° NE 23:56:12 48° ESE visible
03 Apr 8.3 01:53:27 10° NW 02:03:55 46° WSW 02:03:55 46° WSW visible
03 Apr 9.2 20:49:22 10° WNW 21:00:29 37° N 21:11:12 10° ENE visible
03 Apr 8.4 23:04:06 10° NW 23:16:04 58° NE 23:21:14 36° E visible
04 Apr 8.0 01:17:11 10° NW 01:28:43 58° WSW 01:28:59 58° WSW visible
04 Apr 9.4 03:33:14 10° WNW 03:36:42 13° W 03:36:42 13° W visible
04 Apr 9.2 20:12:31 10° WNW 20:23:38 37° N 20:34:22 10° ENE visible
04 Apr 8.6 22:27:48 10° NW 22:39:35 51° NNE 22:46:19 27° E visible
05 Apr 7.9 00:40:59 10° NW 00:52:52 72° WSW 00:54:03 68° SSW visible
05 Apr 9.2 02:55:30 10° NW 03:01:47 20° W 03:01:47 20° W visible
05 Apr 8.7 21:51:25 10° NW 22:03:00 45° NNE 22:11:24 19° E visible
06 Apr 7.8 00:04:48 10° NW 00:16:53 86° SW 00:19:09 65° SSE visible
06 Apr 8.9 02:18:33 10° NW 02:26:53 27° W 02:26:53 27° W visible
06 Apr 8.9 21:14:55 10° NW 21:26:19 41° NNE 21:36:32 12° E visible
06 Apr 8.0 23:28:38 10° NW 23:40:47 81° NE 23:44:16 54° SE visible
